DW8618 Nerja ES current weather conditions

sailwx.info

Wind from 201 at 1 knots gusting 6

Air temperature 23.3° C
Dewpoint 19.9° C

Last reported at 2015-Jul-02 11:45 UTC.
Time now 2015-Jul-02 12:38 UTC

Location: N 36°46' W 003°52'.
View on Google Maps.

See reports from other nearby stations

  
Tides and Currents Weather Stations Pressure Air Temp Water Temp Dewpoint Dewpoint Depression Visibility Wind Speed Wind Dir Waves Ship Positions
date/time (UTC)wind fromknots sea level pressurealtimeterstation pressurevisibilityair tempwater tempwave heightnotes
2015-Jul-02 11:45 201 1 gusting 6 23.3
2015-Jul-02 11:30 201 0 gusting 6 23.9
2015-Jul-02 11:15 201 2 gusting 6 25.0
2015-Jul-02 11:01 201 2 gusting 5 25.0
2015-Jul-02 10:45 201 2 gusting 6 25.0
2015-Jul-02 10:31 201 24.4
2015-Jul-02 10:15 201 1 gusting 5 24.4
2015-Jul-02 10:01 201 23.9
2015-Jul-02 09:45 201 1 gusting 6 23.9
2015-Jul-02 09:30 201 1 gusting 6 23.9
2015-Jul-02 09:15 201 1 gusting 6 23.9
2015-Jul-02 09:01 201 23.3
2015-Jul-02 08:46 204 2 gusting 6 23.3
2015-Jul-02 08:30 230 0 gusting 6 23.3
2015-Jul-02 08:16 230 0 gusting 3 22.8
2015-Jul-02 08:01 230 22.2
2015-Jul-02 07:45 230 22.2
2015-Jul-02 07:30 230 22.2
2015-Jul-02 07:15 230 22.2
2015-Jul-02 06:45 230 22.2
2015-Jul-02 06:31 230 22.2
2015-Jul-02 06:15 230 0 gusting 3 22.2
2015-Jul-02 06:01 232 22.2
2015-Jul-02 05:45 232 22.2
2015-Jul-02 05:15 232 22.2
2015-Jul-02 05:01 232 0 gusting 3 22.2
2015-Jul-02 04:45 232 22.2
2015-Jul-02 04:30 232 22.2
2015-Jul-02 04:16 232 22.8
2015-Jul-02 04:01 224 22.2
2015-Jul-02 03:45 224 22.8
2015-Jul-02 03:30 224 22.8
2015-Jul-02 03:15 224 23.3
2015-Jul-02 03:01 224 0 gusting 5 23.3
2015-Jul-02 02:46 224 23.3
2015-Jul-02 02:30 224 23.3
2015-Jul-02 02:15 224 23.9
2015-Jul-02 02:01 224 23.9
2015-Jul-02 01:45 225 23.3
2015-Jul-02 01:30 225 23.3
2015-Jul-02 01:16 219 23.9
2015-Jul-02 01:01 219 24.4
2015-Jul-02 00:45 219 0 gusting 4 24.4
2015-Jul-02 00:30 223 24.4
2015-Jul-02 00:16 223 23.9
2015-Jul-02 00:01 223 23.9
2015-Jul-01 23:45 223 24.4
2015-Jul-01 23:31 223 24.4
2015-Jul-01 23:15 223 24.4
2015-Jul-01 23:01 223 25.0
2015-Jul-01 22:46 223 25.0
2015-Jul-01 22:30 223 25.0
2015-Jul-01 22:15 222 25.0
2015-Jul-01 22:01 222 25.0
2015-Jul-01 21:45 222 25.0
2015-Jul-01 21:30 222 25.0
2015-Jul-01 21:15 222 25.0
2015-Jul-01 20:45 222 25.0
2015-Jul-01 20:31 222 25.0
2015-Jul-01 20:15 222 25.0
2015-Jul-01 20:01 222 25.6
2015-Jul-01 19:45 222 25.6
2015-Jul-01 19:31 222 25.6
2015-Jul-01 19:15 222 25.6
2015-Jul-01 19:01 222 25.6
2015-Jul-01 18:45 222 0 gusting 4 25.6
2015-Jul-01 18:31 222 1 gusting 6 25.6
2015-Jul-01 18:15 222 2 gusting 6 26.1
2015-Jul-01 18:01 222 1 gusting 5 26.1
2015-Jul-01 17:46 222 26.7
2015-Jul-01 17:30 222 26.7
2015-Jul-01 17:15 222 0 gusting 5 26.7
2015-Jul-01 17:01 222 26.7
2015-Jul-01 16:45 222 26.1
2015-Jul-01 16:30 222 26.7
2015-Jul-01 16:15 222 26.7
2015-Jul-01 16:01 222 0 gusting 4 27.2
2015-Jul-01 15:45 222 3 gusting 6 26.1
2015-Jul-01 15:30 222 0 gusting 5 27.2
2015-Jul-01 15:16 222 0 gusting 6 27.2
2015-Jul-01 15:01 221 1 gusting 6 27.2
2015-Jul-01 14:46 222 2 gusting 6 27.2
2015-Jul-01 14:30 222 0 gusting 6 27.8
2015-Jul-01 14:15 222 1 gusting 4 27.2
2015-Jul-01 14:01 220 0 gusting 7 27.2
2015-Jul-01 13:45 217 2 gusting 6 27.2
2015-Jul-01 13:30 218 2 gusting 6 27.2
2015-Jul-01 13:15 221 1 gusting 6 27.8
2015-Jul-01 13:01 220 0 gusting 6 27.8
2015-Jul-01 12:45 220 1 gusting 7 27.2
2015-Jul-01 12:30 220 3 gusting 6 27.2
2015-Jul-01 12:15 219 4 gusting 6 27.2
2015-Jul-01 12:01 220 3 gusting 7 27.2
2015-Jul-01 11:45 224 1 gusting 6 27.2
2015-Jul-01 11:30 224 0 gusting 6 26.7
2015-Jul-01 11:15 224 2 gusting 6 27.2
2015-Jul-01 11:01 224 27.2
2015-Jul-01 10:45 224 27.2
2015-Jul-01 10:30 224 0 gusting 4 26.7
2015-Jul-01 10:15 224 26.1
2015-Jul-01 10:01 224 25.6
2015-Jul-01 09:45 224 0 gusting 5 25.0
2015-Jul-01 09:30 224 0 gusting 5 25.6
2015-Jul-01 09:15 224 24.4
2015-Jul-01 09:01 224 24.4
2015-Jul-01 08:45 224 25.0
2015-Jul-01 08:30 224 25.0
2015-Jul-01 08:15 224 25.0
2015-Jul-01 08:01 231 24.4
2015-Jul-01 07:45 231 24.4
2015-Jul-01 07:31 231 24.4
2015-Jul-01 07:15 231 24.4
2015-Jul-01 07:01 231 23.9
2015-Jul-01 06:45 231 23.9
2015-Jul-01 06:31 231 23.3
2015-Jul-01 06:15 231 22.8
2015-Jul-01 06:01 231 22.8
2015-Jul-01 05:45 231 22.8
2015-Jul-01 05:30 231 22.8
2015-Jul-01 05:15 232 22.8
2015-Jul-01 05:01 232 23.3
2015-Jul-01 04:45 232 23.3
2015-Jul-01 04:31 232 23.3
2015-Jul-01 04:15 232 23.3
2015-Jul-01 04:01 232 23.3
2015-Jul-01 03:45 232 22.8
2015-Jul-01 03:31 232 23.3
2015-Jul-01 03:15 232 23.3
2015-Jul-01 03:01 232 23.3
2015-Jul-01 02:45 232 23.9
2015-Jul-01 02:30 232 23.9
2015-Jul-01 02:16 232 23.9
2015-Jul-01 02:01 232 23.9
2015-Jul-01 01:46 232 24.4
2015-Jul-01 01:15 232 24.4
2015-Jul-01 01:01 232 24.4
2015-Jul-01 00:45 232 23.9
2015-Jul-01 00:31 232 23.9
2015-Jul-01 00:15 232 23.9
2015-Jul-01 00:01 232 23.9
2015-Jun-30 23:45 232 23.9
2015-Jun-30 23:31 232 23.9
2015-Jun-30 23:15 232 1 gusting 3 23.9
2015-Jun-30 23:01 230 0 gusting 2 23.9
2015-Jun-30 22:45 225 24.4
2015-Jun-30 22:31 225 24.4
2015-Jun-30 22:15 225 24.4
2015-Jun-30 22:01 225 25.0
2015-Jun-30 21:45 225 25.0
2015-Jun-30 21:31 225 25.0
2015-Jun-30 21:15 225 25.0
2015-Jun-30 21:01 225 25.6
2015-Jun-30 20:45 225 25.6
2015-Jun-30 20:30 225 25.6
2015-Jun-30 20:16 225 25.6
2015-Jun-30 20:01 225 25.6
2015-Jun-30 19:45 225 25.6
2015-Jun-30 19:30 225 25.6
2015-Jun-30 19:16 225 25.6
2015-Jun-30 19:01 225 25.6
2015-Jun-30 18:45 225 26.1
2015-Jun-30 18:31 224 26.1
2015-Jun-30 18:16 225 26.7
2015-Jun-30 18:01 225 0 gusting 6 26.7
2015-Jun-30 17:45 222 1 gusting 6 26.7
2015-Jun-30 17:30 224 0 gusting 6 26.7
2015-Jun-30 17:15 225 2 gusting 6 26.7
2015-Jun-30 17:01 225 0 gusting 7 26.7
2015-Jun-30 16:45 221 2 gusting 7 27.2
2015-Jun-30 16:31 219 2 gusting 6 27.2
2015-Jun-30 16:15 216 1 gusting 7 27.2
2015-Jun-30 16:01 212 3 gusting 6 27.2
2015-Jun-30 15:46 211 0 gusting 6 27.2
2015-Jun-30 15:30 205 3 gusting 7 27.2
2015-Jun-30 15:16 202 3 gusting 7 27.2
2015-Jun-30 15:01 205 3 gusting 6 27.2
2015-Jun-30 14:45 207 3 gusting 7 27.2
2015-Jun-30 14:31 206 2 gusting 6 27.2
2015-Jun-30 14:15 207 2 gusting 7 27.2
2015-Jun-30 14:01 208 3 gusting 8 27.8
2015-Jun-30 13:45 221 1 gusting 8 27.2
2015-Jun-30 13:30 202 3 gusting 9 27.2
2015-Jun-30 13:15 217 4 gusting 8 27.8
2015-Jun-30 13:01 208 3 gusting 6 27.8
2015-Jun-30 12:45 203 3 gusting 7 26.7
2015-Jun-30 12:31 223 5 gusting 10 27.2
2015-Jun-30 12:15 212 4 gusting 8 27.2
2015-Jun-30 12:01 216 4 gusting 10 27.2